Location: Ore Lake
(42.4733°N, 83.8017°W)
Time: 21:44:58
(UTC-04:00)

Daily predictions for brighter satellites

Satellite Brightness Start Highest point End
(mag) Time Altitude Azimuth Time Altitude Azimuth Time Altitude Azimuth
ARGOS 4.2 21:43:49 10° SE 21:48:30 31° ENE 21:53:10 10° N
In-Cosmos 22 4.3 21:43:27 10° S 21:49:10 85° E 21:54:58 10° N
CZ-3B R/B 4.4 21:46:36 10° S 21:49:20 35° ESE 21:56:46 10° NE
Lacrosse 5 2.8 21:44:47 10° NW 21:49:34 40° NE 21:54:21 10° ESE
SL-16 R/B 2.3 21:45:48 10° NNW 21:51:31 90° SSE 21:57:10 10° SSE
Cosmos 1908 3.7 21:48:10 10° N 21:51:54 43° ENE 21:55:35 10° SSE
SPOT 5 4.2 21:47:52 10° ESE 21:51:58 28° ENE 21:56:14 10° N
Meteor 1-24 Rocket 4.3 21:49:00 10° SSW 21:54:51 65° WNW 22:00:33 10° N
Cosmos 1570 Rocket 4.1 21:49:53 10° NNW 21:55:13 74° ENE 22:00:27 10° SSE
USA 32 4.1 21:52:22 10° S 21:57:36 89° W 22:02:53 10° N
Atlas Centaur 2 3.4 21:57:53 10° SSW 21:58:10 10° SSW 21:58:28 10° S
Cosmos 1766 Rocket 4.3 21:56:12 10° SSE 22:00:04 33° E 22:04:00 10° NNE
Abrixas rocket 3.6 21:58:51 10° NW 22:01:52 35° NNE 22:04:54 10° E
Cosmos 1242 Rocket 2.8 21:59:38 10° N 22:03:19 56° ENE 22:06:58 10° SSE
Helios 1B rocket 2.9 22:03:54 10° N 22:08:02 66° WNW 22:12:07 10° SSW
SAR-Lupe-1 4.1 22:04:30 10° SSE 22:08:05 83° WSW 22:11:43 10° NNW
USA 245 4.3 22:07:27 11° SE 22:10:25 32° ENE 22:14:14 10° N
Cosmos 2084 3.4 22:08:16 10° SW 22:12:16 77° NW 22:16:08 10° NE
Cosmos 1867 3.6 22:10:11 10° SSW 22:15:38 86° ESE 22:21:08 10° NE
Milstar 3 Cent rocket 4.4 22:10:03 10° WSW 22:16:01 27° S 22:25:00 12° SE
H-2A R/B 4.3 22:15:35 10° ENE 22:16:51 11° ENE 22:18:06 10° NE
Resurs 01 Rocket 4.3 22:14:11 10° SW 22:16:51 16° W 22:19:33 10° NW
USA 234 3.6 22:11:08 10° ENE 22:17:15 41° SE 22:23:20 10° SSW
Helios 1A 4.2 22:14:02 10° SSW 22:17:55 39° W 22:21:50 10° NNW
Cosmos 2228 Rocket 4.3 22:14:46 10° NNE 22:18:48 29° ENE 22:22:04 14° SE
Cosmos 468 Rocket 4.2 22:16:42 10° NNW 22:21:46 56° ENE 22:26:04 14° SE
NOAA 11 4.2 22:17:10 10° SSE 22:22:35 84° ENE 22:28:03 10° NNW
Cosmos 1459 Rocket 4.0 22:19:08 10° N 22:25:28 89° E 22:31:40 10° S
SL-08 RB Rocket 4.2 22:21:53 13° SE 22:25:41 47° ENE 22:30:07 10° N
Terra 3.5 22:24:01 11° ESE 22:27:16 21° ENE 22:30:45 10° NNE
ERS-1 Rocket 3.1 22:22:15 10° S 22:27:17 79° WSW 22:32:21 10° NNW
Cosmos 2227 4.2 22:22:26 10° SSW 22:28:07 66° ESE 22:33:47 10° NNE
Cosmos 2100 Rocket 4.2 22:25:00 10° N 22:31:19 78° W 22:37:39 10° S
H-2A ROCKET BODY 3.9 22:28:40 10° S 22:31:41 16° SE 22:37:20 10° ESE
Cosmos 332 Rocket 4.1 22:28:31 10° NNW 22:33:21 58° ENE 22:37:02 17° SE
Cosmos 1356 Rocket 4.0 22:33:35 10° SSW 22:37:47 61° WNW 22:42:04 10° N
Cosmos 2061 Rocket 4.2 22:32:06 10° N 22:38:30 81° W 22:44:55 10° S
MetOp-B 4.2 22:35:14 11° S 22:40:24 80° WSW 22:45:48 10° NNW
Cosmos 2173 Rocket 4.2 22:35:01 10° NNW 22:41:09 71° W 22:47:20 10° S
Cosmos 2123 Rocket 4.1 22:36:13 10° S 22:42:16 61° E 22:48:23 10° NNE
Meteor 2-10 4.4 22:36:46 10° N 22:42:18 57° ENE 22:46:32 18° SSE
H-2A R/B 2.3 22:39:05 17° SSE 22:43:10 59° ENE 22:48:31 10° N
Cosmos 220 Rocket 4.2 22:39:19 10° S 22:43:33 50° ESE 22:47:48 10° NNE
Cosmos 1626 3.8 22:44:38 17° ESE 22:45:29 18° E 22:48:07 10° NE
Cosmos 2058 4.2 22:44:53 20° SE 22:46:34 25° E 22:50:04 10° NNE
Cosmos 1726 2.0 22:45:59 10° N 22:49:41 89° E 22:52:04 21° S
Cosmos 2263 Rocket 2.8 22:46:57 17° SSE 22:50:38 35° ESE 22:55:39 10° NE
Cosmos 1300 2.6 22:49:33 10° N 22:53:23 75° E 22:55:37 24° SSE
RESURS DK-1 2.4 22:50:12 10° NNW 22:54:22 76° WSW 22:56:54 23° SSE
ATLAS 5 CENTAUR R/B 3.7 22:50:53 10° WSW 22:55:11 34° NW 22:59:53 10° NNE
SL-14 R/B 3.2 22:53:30 17° S 22:56:26 74° E 23:00:22 10° NNE
EO 1 Delta rocket 3.8 22:55:37 19° SSE 22:58:57 82° ENE 23:03:36 10° N
Cosmos 1408 Rocket 4.2 22:56:08 10° SSW 23:00:19 53° W 23:04:35 10° N
Meteor 2-2 Rocket 4.4 22:57:18 10° NNW 23:03:06 82° W 23:07:37 18° S
Cosmos 1725 Rocket 4.0 22:58:20 10° N 23:04:38 89° ENE 23:09:19 19° S
ERBS 2.3 23:01:47 10° NW 23:05:11 79° NE 23:06:28 35° SE
Cosmos 1328 3.8 23:02:47 17° S 23:05:47 87° W 23:09:51 10° N
Cosmos 1356 3.6 23:11:37 37° SSE 23:12:39 53° E 23:16:05 10° NNE
Tiangong 1 0.6 23:10:04 10° W 23:12:53 89° SSE 23:13:24 54° E
Cosmos 2151 3.1 23:11:00 28° SSE 23:13:04 59° E 23:17:20 10° NNE
Cosmos 1354 Rocket 4.4 23:16:07 27° SSE 23:18:24 43° ESE 23:23:20 10° NNE
Cosmos 1603 4.3 23:13:20 10° NW 23:18:46 50° WSW 23:22:24 20° S
Cosmos 1500 Rocket 3.5 23:18:03 24° S 23:20:46 88° E 23:25:14 10° N
Cosmos 1814 Rocket 4.3 23:16:32 10° NNW 23:21:48 62° WSW 23:24:55 24° S
DMSP B5D2-2 4.0 23:17:30 10° NNE 23:22:45 80° ESE 23:26:17 21° S
Cosmos 371 Rocket 3.6 23:18:30 10° NNW 23:23:14 59° WSW 23:25:49 26° S
Cosmos 1844 Rocket 4.5 23:24:43 14° E 23:24:44 14° E 23:27:24 10° ENE
Cosmos 1455 2.9 23:23:06 10° N 23:26:45 38° ENE 23:27:33 34° ESE
CZ-4C R/B 3.5 23:28:14 20° ESE 23:28:14 20° ESE 23:32:03 10° ENE
ARGOS 4.3 23:24:14 13° SSW 23:28:36 37° W 23:33:36 10° NNW
Cosmos 1486 Rocket 4.1 23:24:29 11° SSW 23:29:36 77° WNW 23:34:56 10° NNE
SPOT 5 4.1 23:26:16 15° SSW 23:29:51 36° W 23:34:32 10° NNW
CARTOSAT-1 3.5 23:29:27 37° SSE 23:31:09 84° ENE 23:35:29 10° NNW
Cosmos 841 Rocket 3.5 23:26:09 10° NNW 23:31:26 82° WSW 23:33:54 32° SSE
Lacrosse 5 2.6 23:27:49 10° WNW 23:32:33 41° SW 23:34:30 29° S
Cosmos 1763 Rocket 3.7 23:27:57 10° NNW 23:33:00 61° WSW 23:35:29 29° S
Cosmos 1943 3.2 23:28:19 10° NNW 23:33:58 76° WSW 23:36:46 31° SSE
SL-19 R/B 4.2 23:29:39 10° NNE 23:34:59 63° ESE 23:37:45 30° S
SPOT 1/Viking Rocket 4.4 23:35:08 19° SSW 23:38:24 42° W 23:43:19 10° NNW
Abrixas rocket 2.3 23:35:32 10° WNW 23:38:41 58° SW 23:38:41 58° SW
Cosmos 1805 Rocket 4.0 23:39:13 38° ESE 23:39:58 41° E 23:44:04 10° NNE
Cosmos 1633 Rocket 4.3 23:44:55 26° E 23:45:11 26° E 23:48:48 10° NNE
CZ-4C R/B 4.2 23:46:43 36° ESE 23:47:47 43° ENE 23:51:57 10° N
Cosmos 1151 Rocket 3.7 23:44:32 10° NNW 23:48:47 49° W 23:50:35 30° SSW
IGS 5A 3.7 23:48:26 40° SSW 23:49:43 63° W 23:53:52 10° NNW
H-2A R/B 2.0 23:51:01 45° S 23:52:16 76° WSW 23:56:32 10° NNW
SME Rocket 3.4 23:52:50 41° ESE 23:53:44 50° ENE 23:58:13 10° N
